This is the latest recevied weather packets stored in our database for station/object KC5DAQ-28. If no packets are shown the sender has not sent any weather packets the latest 10 day(s).
| Time | Temp. | Humidity | Pressure | Rain* | Wind** | Luminosity | Snow |
|---|---|---|---|---|---|---|---|
| 1777406403 | 32.22° C | 63% | 1006.9 hPa | 0 mm | - | 709 W/m² | - |
| 1777406342 | 32.22° C | 63% | 1006.9 hPa | 0 mm | - | 986 W/m² | - |
| 1777406284 | 32.22° C | 64% | 1006.8 hPa | 0 mm | - | 986 W/m² | - |
| 1777406223 | 32.22° C | 63% | 1006.8 hPa | 0 mm | - | 986 W/m² | - |
| 1777406164 | 32.22° C | 63% | 1006.9 hPa | 0 mm | - | 939 W/m² | - |
| 1777406103 | 32.22° C | 62% | 1006.8 hPa | 0 mm | - | 939 W/m² | - |
| 1777406044 | 32.22° C | 63% | 1006.8 hPa | 0 mm | - | 939 W/m² | - |
| 1777405984 | 32.22° C | 63% | 1006.8 hPa | 0 mm | - | 939 W/m² | - |
| 1777405923 | 32.78° C | 63% | 1006.8 hPa | 0 mm | - | 939 W/m² | - |
| 1777405863 | 32.78° C | 62% | 1006.9 hPa | 0 mm | - | 939 W/m² | - |
| 1777405805 | 32.78° C | 64% | 1006.8 hPa | 0 mm | - | 997 W/m² | - |
| 1777405742 | 32.78° C | 64% | 1006.9 hPa | 0 mm | - | 937 W/m² | - |
| 1777405684 | 32.78° C | 64% | 1006.9 hPa | 0 mm | - | 969 W/m² | - |
| 1777405622 | 32.22° C | 64% | 1006.8 hPa | 0 mm | - | 969 W/m² | - |
| 1777405563 | 32.22° C | 65% | 1006.9 hPa | 0 mm | - | 953 W/m² | - |
| 1777405504 | 32.78° C | 64% | 1006.7 hPa | 0 mm | - | 1009 W/m² | - |
| 1777405443 | 32.22° C | 64% | 1006.8 hPa | 0 mm | - | 1009 W/m² | - |
| 1777405383 | 32.22° C | 64% | 1006.8 hPa | 0 mm | - | 1009 W/m² | - |
| 1777405322 | 32.22° C | 63% | 1006.9 hPa | 0 mm | - | 1020 W/m² | - |
| 1777405263 | 32.22° C | 63% | 1006.8 hPa | 0 mm | - | 1046 W/m² | - |
| 1777405202 | 32.22° C | 63% | 1006.8 hPa | 0 mm | - | 1071 W/m² | - |
| 1777405143 | 32.22° C | 63% | 1006.9 hPa | 0 mm | - | 1071 W/m² | - |
| 1777405083 | 32.22° C | 63% | 1006.8 hPa | 0 mm | - | 1020 W/m² | - |
| 1777405022 | 32.22° C | 63% | 1006.8 hPa | 0 mm | - | 1020 W/m² | - |
| 1777404964 | 32.22° C | 63% | 1006.7 hPa | 0 mm | - | 1027 W/m² | - |
* Rain latest hour (hover to see other rain measurements)
** Current wind speed in m/s (hover to see current wind gust speed)